Location: Oakhurst
(33.6448°N, 111.9543°W)
Time: 02:47:19
(UTC+00:00)

JUGNU - Visible Passes

Search period start: 05 August 2021 00:00
Search period end: 15 August 2021 00:00
Orbit: 836 x 863 km, 20.0° (Epoch: 04 August)

Date Brightness Start Highest point End Pass type
(mag) Time Alt. Az. Time Alt. Az. Time Alt. Az.
05 Aug ? 11:30:00 16° SSW 11:32:28 21° S 11:36:51 10° SE visible
06 Aug ? 11:15:46 20° SSW 11:17:10 21° S 11:21:34 10° SE visible
07 Aug ? 11:01:34 21° S 11:01:52 21° S 11:06:16 10° SE visible
08 Aug ? 10:47:26 21° S 10:47:26 21° S 10:50:57 10° SE visible
09 Aug ? 10:33:21 18° SSE 10:33:21 18° SSE 10:35:38 10° SE visible
09 Aug ? 12:16:13 10° SW 12:19:37 15° SSW 12:23:00 10° SSE visible
10 Aug ? 10:19:20 13° SE 10:19:20 13° SE 10:20:17 10° SE visible
10 Aug ? 12:01:12 10° SW 12:04:18 15° SSW 12:07:26 10° SSE visible
11 Aug ? 11:47:15 12° SSW 11:49:00 13° SSW 11:51:48 10° SSE visible
12 Aug ? 11:33:22 12° SSW 11:33:41 12° SSW 11:36:05 10° S visible
13 Aug ? 11:19:33 11° S 11:19:33 11° S 11:20:13 10° S visible
